This demonstration page uses our WeatherBlox Daily Observations layout. Learn more.

Left ArrowRight Arrow

30.21309, -93.2044

Hourly Observations for October 1, 2022

Temp ( °F °C ) Dew Point ( °F °C ) Humidity (%) Winds ( mph kmh ) Pressure ( in mb ) Visibility ( mi km ) Precip ( " mm )
12:15 am 00:15 Clear 59 14.8 50 9.8 72 72 NE 5 7 29.97 1015 10 16 0.00 0.00
12:35 am 00:35 Clear 60 15.8 50 9.8 67 67 NNE 6 9 29.97 1015 10 16 0.00 0.00
12:55 am 00:55 Clear 60 15.8 49 9.6 67 67 NNE 6 9 29.97 1015 10 16 0.00 0.00
1:15 am 01:15 Clear 60 15.8 49 9.4 66 66 NNE 6 9 29.97 1015 10 16 0.00 0.00
1:35 am 01:35 Clear 60 15.6 49 9.7 68 68 NNE 6 9 29.96 1015 10 16 0.00 0.00
1:55 am 01:55 Clear 60 15.4 50 9.9 70 70 NNE 7 11 29.97 1015 10 16 0.00 0.00
2:15 am 02:15 Clear 60 15.4 50 9.9 70 70 NNE 6 9 29.97 1015 10 16 0.00 0.00
2:35 am 02:35 Clear 59 15.2 50 9.8 70 70 NNE 7 11 29.97 1015 10 16 0.00 0.00
2:55 am 02:55 Clear 59 14.9 49 9.6 71 71 NNE 7 11 29.97 1015 10 16 0.00 0.00
3:15 am 03:15 Clear 59 15.1 49 9.4 69 69 NNE 7 11 29.97 1015 10 16 0.00 0.00
3:35 am 03:35 Clear 59 15.1 49 9.3 68 68 NNE 8 13 29.97 1015 10 16 0.00 0.00
3:55 am 03:55 Clear 59 15.1 49 9.4 69 69 NNE 7 11 29.97 1015 10 16 0.00 0.00
4:15 am 04:15 Clear 59 15 49 9.3 69 69 NNE 8 13 29.97 1015 10 16 0.00 0.00
4:35 am 04:35 Clear 59 15.1 48 9.1 67 67 NNE 9 15 29.97 1015 10 16 0.00 0.00
4:55 am 04:55 Clear 58 14.7 48 9.1 69 69 NNE 9 15 29.98 1015 10 16 0.00 0.00
5:15 am 05:15 Clear 58 14.5 48 9 70 70 NNE 8 13 29.98 1015 10 16 0.00 0.00
5:35 am 05:35 Clear 58 14.5 48 8.8 69 69 NNE 7 11 29.99 1016 10 16 0.00 0.00
6:00 am 06:00 Mostly Clear 57 14 48 9 72 72 NE 6 9 30.00 1016 10 16 0.00 0.00
6:50 am 06:50 Mostly Clear 55 13 46 8 72 72 NNE 5 7 30.01 1016 10 16 0.00 0.00
7:54 am 07:54 Mostly Sunny 57 14 48 9 72 72 NNE 7 11 30.04 1017 10 16 0.00 0.00
8:57 am 08:57 Mostly Sunny 63 17 50 10 63 63 ENE 9 15 30.05 1018 10 16 0.00 0.00
9:45 am 09:45 Mostly Sunny 70 21 50 10 49 49 E 9 15 30.05 1018 10 16 0.00 0.00
10:52 am 10:52 Mostly Sunny 75 24 50 10 41 41 ENE 7 11 30.05 1018 10 16 0.00 0.00
11:54 am 11:54 Mostly Sunny 79 26 45 7 30 30 ENE 9 15 30.05 1018 10 16 0.00 0.00
12:46 pm 12:46 Mostly Sunny 81 27 48 9 32 32 N 8 13 30.03 1017 10 16 0.00 0.00
1:46 pm 13:46 Mostly Sunny 82 28 46 8 28 28 NNE 7 11 30.01 1016 10 16 0.00 0.00
2:55 pm 14:55 Mostly Sunny 82 28 46 8 28 28 N 9 15 29.98 1015 10 16 0.00 0.00
3:45 pm 15:45 Mostly Sunny 82 28 46 8 28 28 NNE 7 11 29.97 1015 10 16 0.00 0.00
4:45 pm 16:45 Mostly Sunny 82 28 46 8 28 28 N 9 15 29.96 1014 10 16 0.00 0.00
5:45 pm 17:45 Mostly Sunny 82 28 46 8 28 28 NE 8 13 29.97 1015 10 16 0.00 0.00
6:45 pm 18:45 Mostly Sunny 79 26 46 8 32 32 NNE 5 7 29.98 1015 10 16 0.00 0.00
7:45 pm 19:45 Mostly Clear 73 23 46 8 38 38 NE 5 7 30.00 1016 10 16 0.00 0.00
8:45 pm 20:45 Mostly Clear 70 21 48 9 46 46 NE 6 9 30.02 1017 10 16 0.00 0.00
9:45 pm 21:45 Mostly Clear 66 19 48 9 52 52 NE 5 7 30.03 1017 10 16 0.00 0.00
10:15 pm 22:15 Clear 63 17 48 9 59 59 Calm 30.04 1017 10 16 0.00 0.00
10:35 pm 22:35 Clear 61 16.1 49 9.4 64 64 NE 3 6 30.04 1017 10 16 0.00 0.00
10:55 pm 22:55 Clear 62 16.9 50 9.8 63 63 NNE 5 7 30.05 1018 10 16 0.00 0.00
11:15 pm 23:15 Clear 63 17.2 48 9.1 59 59 NE 3 6 30.05 1018 10 16 0.00 0.00
11:35 pm 23:35 Clear 62 16.4 49 9.4 63 63 NNE 6 9 30.06 1018 10 16 0.00 0.00
11:55 pm 23:55 Clear 62 16.5 49 9.6 64 64 NNE 5 7 30.06 1018 10 16 0.00 0.00

Powered by AerisWeather